Location: Bogis-Bossey
(46.3500°N, 6.1667°E)
Time: 18:24:01
(UTC+00:00)

Cosmos 1346 Rocket - Pass Details

Date: 17 August 2022
Orbit: 525 x 543 km, 81.2° (Epoch: 30 September)

Event Time Altitude Azimuth Distance (km) Brightness Sun altitude
Rises 20:50:47 0° 343° (NNW) 2,722 7.5 -19.4°
Reaches altitude 10° 20:53:01 10° 337° (NNW) 1,825 6.5 -19.7°
Maximum altitude 20:56:50 44° 265° (W) 762 3.7 -20.2°
Enters shadow 20:58:36 27° 209° (SSW) 1,076 4.1 -20.4°
